Time,TemperatureF,DewpointF,PressureIn,WindDirection,WindDirectionDegrees,WindSpeedMPH,WindSpeedGustMPH,Humidity,HourlyPrecipIn,Conditions,Clouds,dailyrainin,SolarRadiationWatts/m^2,SoftwareType,DateUTC
2013-01-10 00:02:00,40.0,19.0,-100.00,SSW,212,8.0,16.0,42,0.00,,,0.00,0.000000,,2013-01-10 07:02:00,
2013-01-10 00:22:00,42.0,18.0,-100.00,SW,219,11.0,17.0,38,0.00,,,0.00,0.000000,,2013-01-10 07:22:00,
2013-01-10 00:32:00,42.0,18.0,-100.00,SW,219,11.0,17.0,38,0.00,,,0.00,0.000000,,2013-01-10 07:32:00,
2013-01-10 00:42:00,42.0,18.0,-100.00,SW,219,11.0,17.0,38,0.00,,,0.00,0.000000,,2013-01-10 07:42:00,
2013-01-10 00:52:00,42.0,18.0,-100.00,SW,219,11.0,17.0,38,0.00,,,0.00,0.000000,,2013-01-10 07:52:00,
2013-01-10 01:01:00,42.0,18.0,-100.00,SW,219,11.0,17.0,38,0.00,,,0.00,0.000000,,2013-01-10 08:01:00,
2013-01-10 01:32:00,40.0,16.0,-100.00,SW,228,8.0,15.0,37,0.00,,,0.00,0.000000,,2013-01-10 08:32:00,
2013-01-10 01:42:00,40.0,16.0,-100.00,SW,228,8.0,15.0,37,0.00,,,0.00,0.000000,,2013-01-10 08:42:00,
2013-01-10 01:52:00,40.0,16.0,-100.00,SW,228,8.0,15.0,37,0.00,,,0.00,0.000000,,2013-01-10 08:52:00,
2013-01-10 02:02:00,40.0,16.0,-100.00,SW,228,8.0,15.0,37,0.00,,,0.00,0.000000,,2013-01-10 09:02:00,
2013-01-10 02:32:00,40.0,16.0,-100.00,SW,214,10.0,17.0,37,0.00,,,0.00,0.000000,,2013-01-10 09:32:00,
2013-01-10 02:43:00,40.0,16.0,-100.00,SW,214,10.0,17.0,37,0.00,,,0.00,0.000000,,2013-01-10 09:43:00,
2013-01-10 02:52:00,40.0,16.0,-100.00,SW,214,10.0,17.0,37,0.00,,,0.00,0.000000,,2013-01-10 09:52:00,
2013-01-10 03:02:00,40.0,16.0,-100.00,SW,214,10.0,17.0,37,0.00,,,0.00,0.000000,,2013-01-10 10:02:00,
2013-01-10 03:33:00,38.0,16.0,-100.00,East,94,3.0,13.0,41,0.00,,,0.00,0.000000,,2013-01-10 10:33:00,
2013-01-10 03:42:00,38.0,16.0,-100.00,East,94,3.0,13.0,41,0.00,,,0.00,0.000000,,2013-01-10 10:42:00,
2013-01-10 03:52:00,38.0,16.0,-100.00,East,94,3.0,13.0,41,0.00,,,0.00,0.000000,,2013-01-10 10:52:00,
2013-01-10 04:02:00,38.0,16.0,-100.00,East,94,3.0,13.0,41,0.00,,,0.00,0.000000,,2013-01-10 11:02:00,
2013-01-10 04:23:00,39.0,16.0,-100.00,SW,217,5.0,8.0,39,0.00,,,0.00,0.000000,,2013-01-10 11:23:00,
2013-01-10 04:33:00,39.0,16.0,-100.00,SW,217,5.0,8.0,39,0.00,,,0.00,0.000000,,2013-01-10 11:33:00,
2013-01-10 07:22:00,32.0,25.0,-100.00,NNE,17,5.0,11.0,76,-99.99,,,0.00,0.000000,,2013-01-10 14:22:00,
2013-01-10 07:33:00,32.0,25.0,-100.00,NNE,17,5.0,11.0,76,-99.99,,,0.00,0.000000,,2013-01-10 14:33:00,
2013-01-10 07:43:00,32.0,25.0,-100.00,NNE,17,5.0,11.0,76,-99.99,,,0.00,0.000000,,2013-01-10 14:43:00,
2013-01-10 07:53:00,32.0,25.0,-100.00,NNE,17,5.0,11.0,76,-99.99,,,0.00,0.000000,,2013-01-10 14:53:00,
2013-01-10 08:02:00,32.0,25.0,-100.00,NNE,17,5.0,11.0,76,-99.99,,,0.00,0.000000,,2013-01-10 15:02:00,
2013-01-10 08:33:00,33.0,31.0,-100.00,North,353,0.0,10.0,91,0.00,,,0.00,0.000000,,2013-01-10 15:33:00,
2013-01-10 08:43:00,33.0,31.0,-100.00,North,353,0.0,10.0,91,0.00,,,0.00,0.000000,,2013-01-10 15:43:00,
2013-01-10 08:53:00,33.0,31.0,-100.00,North,353,0.0,10.0,91,0.00,,,0.00,0.000000,,2013-01-10 15:53:00,
2013-01-10 09:02:00,33.0,31.0,-100.00,North,353,0.0,10.0,91,0.00,,,0.00,0.000000,,2013-01-10 16:02:00,
2013-01-10 09:33:00,30.0,28.0,-100.00,North,353,11.0,11.0,91,0.00,,,0.00,2.000000,,2013-01-10 16:33:00,
2013-01-10 09:43:00,30.0,28.0,-100.00,North,353,11.0,11.0,91,0.00,,,0.00,2.000000,,2013-01-10 16:43:00,
2013-01-10 09:53:00,30.0,28.0,-100.00,North,353,11.0,11.0,91,0.00,,,0.00,2.000000,,2013-01-10 16:53:00,
2013-01-10 10:02:00,30.0,28.0,-100.00,North,353,11.0,11.0,91,0.00,,,0.00,2.000000,,2013-01-10 17:02:00,
2013-01-10 10:03:00,30.0,24.0,-100.00,North,359,12.0,17.0,77,0.00,,,0.00,22.000000,,2013-01-10 17:03:00,
2013-01-10 10:33:00,30.0,24.0,-100.00,North,359,12.0,17.0,77,0.00,,,0.00,22.000000,,2013-01-10 17:33:00,
2013-01-10 10:43:00,30.0,24.0,-100.00,North,359,12.0,17.0,77,0.00,,,0.00,22.000000,,2013-01-10 17:43:00,
2013-01-10 10:53:00,30.0,24.0,-100.00,North,359,12.0,17.0,77,0.00,,,0.00,22.000000,,2013-01-10 17:53:00,
2013-01-10 11:23:00,27.0,18.0,-100.00,NNE,12,16.0,23.0,69,0.00,,,0.00,44.000000,,2013-01-10 18:23:00,
2013-01-10 11:33:00,27.0,18.0,-100.00,NNE,12,16.0,23.0,69,0.00,,,0.00,44.000000,,2013-01-10 18:33:00,
2013-01-10 11:43:00,27.0,18.0,-100.00,NNE,12,16.0,23.0,69,0.00,,,0.00,44.000000,,2013-01-10 18:43:00,
2013-01-10 11:53:00,27.0,18.0,-100.00,NNE,12,16.0,23.0,69,0.00,,,0.00,44.000000,,2013-01-10 18:53:00,
2013-01-10 12:02:00,27.0,18.0,-100.00,NNE,12,16.0,23.0,69,0.00,,,0.00,44.000000,,2013-01-10 19:02:00,
2013-01-10 12:33:00,25.0,18.0,-100.00,North,4,14.0,25.0,73,0.00,,,-99.99,49.000000,,2013-01-10 19:33:00,
2013-01-10 12:43:00,25.0,18.0,-100.00,North,4,14.0,25.0,73,0.00,,,-99.99,49.000000,,2013-01-10 19:43:00,
2013-01-10 12:53:00,25.0,18.0,-100.00,North,4,14.0,25.0,73,0.00,,,-99.99,49.000000,,2013-01-10 19:53:00,
2013-01-10 13:02:00,25.0,18.0,-100.00,North,4,14.0,25.0,73,0.00,,,-99.99,49.000000,,2013-01-10 20:02:00,
2013-01-10 13:24:00,21.0,14.0,-100.00,North,358,21.0,25.0,73,0.00,,,0.00,62.000000,,2013-01-10 20:24:00,
2013-01-10 13:33:00,21.0,14.0,-100.00,North,358,21.0,25.0,73,0.00,,,0.00,62.000000,,2013-01-10 20:33:00,
2013-01-10 13:43:00,21.0,14.0,-100.00,North,358,21.0,25.0,73,0.00,,,0.00,62.000000,,2013-01-10 20:43:00,
2013-01-10 13:53:00,21.0,14.0,-100.00,North,358,21.0,25.0,73,0.00,,,0.00,62.000000,,2013-01-10 20:53:00,
2013-01-10 14:02:00,21.0,14.0,-100.00,North,358,21.0,25.0,73,0.00,,,0.00,62.000000,,2013-01-10 21:02:00,
2013-01-10 14:33:00,21.0,11.0,-100.00,North,358,25.0,39.0,66,0.00,,,0.00,88.000000,,2013-01-10 21:33:00,
2013-01-10 14:43:00,21.0,11.0,-100.00,North,358,25.0,39.0,66,0.00,,,0.00,88.000000,,2013-01-10 21:43:00,
2013-01-10 14:53:00,21.0,11.0,-100.00,North,358,25.0,39.0,66,0.00,,,0.00,88.000000,,2013-01-10 21:53:00,
2013-01-10 15:02:00,21.0,11.0,-100.00,North,358,25.0,39.0,66,0.00,,,0.00,88.000000,,2013-01-10 22:02:00,
2013-01-10 15:27:00,20.0,9.0,-100.00,SW,232,21.0,41.0,61,0.00,,,0.00,64.000000,,2013-01-10 22:27:00,
2013-01-10 15:34:00,20.0,9.0,-100.00,SW,232,21.0,41.0,61,0.00,,,0.00,64.000000,,2013-01-10 22:34:00,
2013-01-10 15:44:00,20.0,9.0,-100.00,SW,232,21.0,41.0,61,0.00,,,0.00,64.000000,,2013-01-10 22:44:00,
2013-01-10 16:02:00,20.0,9.0,-100.00,SW,232,21.0,41.0,61,0.00,,,0.00,64.000000,,2013-01-10 23:02:00,
2013-01-10 16:33:00,19.0,10.0,-100.00,North,354,19.0,38.0,67,0.00,,,0.00,68.000000,,2013-01-10 23:33:00,
2013-01-10 16:43:00,19.0,10.0,-100.00,North,354,19.0,38.0,67,0.00,,,0.00,68.000000,,2013-01-10 23:43:00,
2013-01-10 16:53:00,19.0,10.0,-100.00,North,354,19.0,38.0,67,0.00,,,0.00,68.000000,,2013-01-10 23:53:00,
2013-01-10 17:02:00,19.0,10.0,-100.00,North,354,19.0,38.0,67,0.00,,,0.00,68.000000,,2013-01-11 00:02:00,
2013-01-10 17:33:00,16.0,8.0,-100.00,NNW,334,23.0,32.0,71,0.00,,,0.00,19.000000,,2013-01-11 00:33:00,
2013-01-10 17:43:00,16.0,8.0,-100.00,NNW,334,23.0,32.0,71,0.00,,,0.00,19.000000,,2013-01-11 00:43:00,
2013-01-10 17:53:00,16.0,8.0,-100.00,NNW,334,23.0,32.0,71,0.00,,,0.00,19.000000,,2013-01-11 00:53:00,
2013-01-10 18:02:00,16.0,8.0,-100.00,NNW,334,23.0,32.0,71,0.00,,,0.00,19.000000,,2013-01-11 01:02:00,
2013-01-10 18:34:00,17.0,5.0,-100.00,North,355,25.0,35.0,59,0.00,,,0.00,0.000000,,2013-01-11 01:34:00,
2013-01-10 18:43:00,17.0,5.0,-100.00,North,355,25.0,35.0,59,0.00,,,0.00,0.000000,,2013-01-11 01:43:00,
2013-01-10 18:53:00,17.0,5.0,-100.00,North,355,25.0,35.0,59,0.00,,,0.00,0.000000,,2013-01-11 01:53:00,
2013-01-10 19:02:00,17.0,5.0,-100.00,North,355,25.0,35.0,59,0.00,,,0.00,0.000000,,2013-01-11 02:02:00,
2013-01-10 19:24:00,15.0,3.0,-100.00,NNW,345,21.0,36.0,59,0.00,,,0.00,0.000000,,2013-01-11 02:24:00,
2013-01-10 19:33:00,15.0,3.0,-100.00,NNW,345,21.0,36.0,59,0.00,,,0.00,0.000000,,2013-01-11 02:33:00,
2013-01-10 19:53:00,15.0,3.0,-100.00,NNW,345,21.0,36.0,59,0.00,,,0.00,0.000000,,2013-01-11 02:53:00,
2013-01-10 20:02:00,15.0,3.0,-100.00,NNW,345,21.0,36.0,59,0.00,,,0.00,0.000000,,2013-01-11 03:02:00,
2013-01-10 20:33:00,15.0,1.0,-100.00,North,351,15.0,32.0,53,0.00,,,0.00,0.000000,,2013-01-11 03:33:00,
2013-01-10 20:43:00,15.0,1.0,-100.00,North,351,15.0,32.0,53,0.00,,,0.00,0.000000,,2013-01-11 03:43:00,
2013-01-10 20:53:00,15.0,1.0,-100.00,North,351,15.0,32.0,53,0.00,,,0.00,0.000000,,2013-01-11 03:53:00,
2013-01-10 21:02:00,15.0,1.0,-100.00,North,351,15.0,32.0,53,0.00,,,0.00,0.000000,,2013-01-11 04:02:00,
2013-01-10 21:03:00,14.0,0.0,-100.00,NNW,343,11.0,29.0,52,0.00,,,0.00,0.000000,,2013-01-11 04:03:00,
2013-01-10 21:33:00,14.0,0.0,-100.00,NNW,343,11.0,29.0,52,0.00,,,0.00,0.000000,,2013-01-11 04:33:00,
2013-01-10 21:43:00,14.0,0.0,-100.00,NNW,343,11.0,29.0,52,0.00,,,0.00,0.000000,,2013-01-11 04:43:00,
2013-01-10 21:53:00,14.0,0.0,-100.00,NNW,343,11.0,29.0,52,0.00,,,0.00,0.000000,,2013-01-11 04:53:00,
2013-01-10 22:33:00,13.0,-2.0,-100.00,NNW,337,16.0,26.0,50,0.00,,,0.00,0.000000,,2013-01-11 05:33:00,
2013-01-10 22:43:00,13.0,-2.0,-100.00,NNW,337,16.0,26.0,50,0.00,,,0.00,0.000000,,2013-01-11 05:43:00,
2013-01-10 22:52:00,13.0,-2.0,-100.00,NNW,337,16.0,26.0,50,0.00,,,0.00,0.000000,,2013-01-11 05:52:00,
2013-01-10 23:02:00,13.0,-2.0,-100.00,NNW,337,16.0,26.0,50,0.00,,,0.00,0.000000,,2013-01-11 06:02:00,
2013-01-10 23:32:00,11.0,-2.0,-100.00,North,5,22.0,29.0,56,0.00,,,0.00,0.000000,,2013-01-11 06:32:00,
2013-01-10 23:42:00,11.0,-2.0,-100.00,North,5,22.0,29.0,56,0.00,,,0.00,0.000000,,2013-01-11 06:42:00,
2013-01-10 23:52:00,11.0,-2.0,-100.00,North,5,22.0,29.0,56,0.00,,,0.00,0.000000,,2013-01-11 06:52:00,